Location: Newark
(51.3318°N, 0.0053°E)
Time: 06:17:29
(UTC+00:00)

BlueWalker 3 - Pass Details

Date: 01 December 2022
Orbit: 499 x 517 km, 53.2° (Epoch: 28 January)

Event Time Altitude Azimuth Distance (km) Brightness Sun altitude
Rises 19:27:33 0° 286° (WNW) 2,628 6.7 -32.2°
Reaches altitude 10° 19:29:45 10° 287° (WNW) 1,736 5.5 -32.5°
Enters shadow 19:30:43 17° 288° (WNW) 1,355 4.8 -32.7°
